GW1125 Weather Reports


Display with metric or nautical units.
time (UTC)temp
F
wind
direction
speed
MPH
gust
MPH
rain 1hr
in
rain 24hr
in
rain mn
in
humidity
%
barometer
mb
20260903233126 66 90 1.0 1.0 0.00 0.14 0.09 63 1008.0
20260903232057 67 101 0.0 0.0 0.00 0.14 0.09 61 1008.0
20260903231041 69 101 0.0 0.0 0.00 0.14 0.09 59 1008.1
20260903230032 70 122 0.0 0.0 0.00 0.14 0.09 49 1008.2
20260903225001 66 94 0.0 1.0 0.00 0.15 0.09 59 1008.3
20260903223934 67 100 0.0 0.0 0.00 0.17 0.09 57 1008.3
20260903222903 66 104 0.0 0.0 0.00 0.19 0.09 60 1008.2
20260903221859 66 101 2.0 2.0 0.00 0.20 0.09 59 1008.3
20260903220855 67 86 1.0 2.0 0.00 0.21 0.09 59 1008.3
20260903215843 67 102 0.0 0.0 0.00 0.23 0.09 51 1008.5
20260903214829 67 102 0.0 0.0 0.00 0.25 0.09 53 1008.4
20260903213749 67 122 0.0 0.0 0.00 0.26 0.09 51 1008.4
20260903212721 65 109 0.0 0.0 0.00 0.27 0.09 66 1008.5
20260903211710 64 105 0.0 0.0 0.00 0.27 0.09 71 1008.7
20260903210709 63 103 0.0 0.0 0.00 0.28 0.09 73 1008.5
20260903205651 64 99 1.0 1.0 0.00 0.30 0.09 71 1008.3
20260903204630 65 101 0.0 0.0 0.00 0.30 0.09 69 1008.3
20260903203625 64 178 2.0 3.0 0.00 0.30 0.09 67 1008.2
20260903202622 64 112 0.0 0.0 0.00 0.30 0.09 72 1008.2
20260903201558 66 229 3.0 3.0 0.00 0.30 0.09 64 1008.2
20260903200557 66 103 0.0 0.0 0.00 0.30 0.09 64 1008.3
20260903195526 65 110 0.0 0.0 0.00 0.30 0.09 65 1008.4
20260903194524 65 103 0.0 0.0 0.00 0.30 0.09 63 1008.2
20260903193455 64 97 1.0 2.0 0.00 0.31 0.09 66 1008.4
20260903192431 62 117 0.0 0.0 0.00 0.31 0.09 69 1008.4
20260903191421 62 113 0.0 0.0 0.00 0.31 0.09 76 1008.4
20260903190358 62 111 0.0 0.0 0.00 0.31 0.09 71 1008.3
20260903185335 62 126 1.0 1.0 0.00 0.31 0.09 71 1008.4
20260903184314 62 122 0.0 1.0 0.00 0.31 0.09 71 1008.4
20260903183258 62 119 0.0 0.0 0.00 0.31 0.09 79 1008.2
20260903182257 62 108 0.0 0.0 0.00 0.31 0.09 80 1008.2
20260903181248 61 117 0.0 0.0 0.00 0.31 0.09 81 1008.4
20260903180236 60 109 0.0 0.0 0.00 0.31 0.09 86 1008.3
20260903175227 59 109 0.0 0.0 0.00 0.31 0.09 86 1008.3
20260903174214 59 110 0.0 0.0 0.00 0.31 0.09 87 1008.2
20260903173201 58 110 0.0 0.0 0.00 0.31 0.09 89 1008.2
20260903172159 57 111 0.0 0.0 0.00 0.31 0.09 91 1008.3
20260903171146 57 111 0.0 0.0 0.00 0.31 0.09 91 1008.1
20260903170134 57 111 0.0 0.0 0.00 0.31 0.09 93 1008.2
20260903165105 56 111 0.0 0.0 0.00 0.31 0.09 94 1008.0
20260903164049 56 111 0.0 0.0 0.00 0.31 0.09 95 1008.2
20260903163035 55 111 0.0 0.0 0.00 0.31 0.09 96 1008.0
20260903162024 54 109 0.0 0.0 0.00 0.31 0.09 97 1007.9
20260903161007 54 109 0.0 0.0 0.00 0.31 0.09 98 1008.1
20260903155929 54 109 0.0 0.0 0.00 0.31 0.09 98 1008.1
20260903154915 54 109 0.0 0.0 0.00 0.31 0.09 99 1008.2
20260903153914 53 111 0.0 0.0 0.00 0.31 0.09 99 1008.2
20260903152858 53 106 0.0 0.0 0.01 0.31 0.09 99 1008.1
20260903151845 53 106 0.0 0.0 0.01 0.31 0.09 99 1008.0
20260903150828 53 106 0.0 0.0 0.01 0.31 0.09 99 1008.0
20260903145814 52 106 0.0 0.0 0.02 0.31 0.09 99 1007.8
20260903144746 52 106 0.0 0.0 0.03 0.31 0.09 99 1007.8
20260903143736 52 106 0.0 0.0 0.03 0.31 0.09 99 1007.9
20260903142714 52 106 0.0 0.0 0.03 0.30 0.08 99 1007.8
20260903141653 52 107 0.0 0.0 0.04 0.30 0.08 99 1007.5
20260903140644 52 103 0.0 0.0 0.04 0.30 0.08 99 1007.7
20260903135640 51 103 0.0 0.0 0.03 0.29 0.07 99 1007.8
20260903134625 51 103 0.0 0.0 0.04 0.28 0.06 99 1007.8
20260903133606 51 103 0.0 0.0 0.04 0.27 0.05 98 1007.6
20260903132557 51 103 0.0 0.0 0.04 0.27 0.05 98 1007.6
20260903131529 51 103 0.0 0.0 0.04 0.26 0.04 98 1007.3
20260903130524 51 103 0.0 0.0 0.04 0.26 0.04 98 1007.4
20260903125503 52 103 0.0 0.0 0.04 0.26 0.04 97 1007.3
20260903124448 52 110 0.0 0.0 0.02 0.24 0.02 97 1007.5
20260903123421 51 111 0.0 0.0 0.01 0.23 0.01 97 1007.4
20260903122354 51 111 0.0 0.0 0.00 0.22 0.00 96 1007.6
20260903121318 51 111 0.0 0.0 0.00 0.22 0.00 96 1007.3
20260903120250 51 111 0.0 0.0 0.00 0.22 0.00 96 1007.0
20260903115227 51 111 0.0 0.0 0.00 0.22 0.00 96 1006.9
20260903114203 51 111 0.0 0.0 0.00 0.22 0.00 96 1006.9
20260903113149 51 107 0.0 0.0 0.00 0.22 0.00 96 1006.7
20260903112148 51 107 0.0 0.0 0.00 0.22 0.00 96 1006.7
20260903111127 51 106 0.0 0.0 0.00 0.22 0.00 96 1006.9
20260903110044 51 106 0.0 0.0 0.00 0.22 0.00 96 1006.9
20260903105022 51 106 0.0 0.0 0.00 0.22 0.00 96 1006.9
20260903104021 51 106 0.0 0.0 0.00 0.22 0.00 96 1006.8
20260903103002 51 106 0.0 0.0 0.00 0.22 0.00 97 1006.8
20260903102002 51 106 0.0 0.0 0.00 0.22 0.00 96 1006.7
20260903100952 51 106 0.0 0.0 0.00 0.22 0.00 96 1007.0
20260903095925 50 106 0.0 0.0 0.00 0.22 0.00 97 1006.6
20260903094916 51 106 0.0 0.0 0.00 0.22 0.00 96 1006.8
20260903093851 51 106 0.0 0.0 0.00 0.22 0.00 96 1006.9
20260903092827 51 106 0.0 0.0 0.00 0.22 0.00 96 1006.7
20260903091823 51 106 0.0 0.0 0.00 0.22 0.00 97 1006.7
20260903090808 51 106 0.0 0.0 0.00 0.22 0.00 97 1006.7
20260903085744 51 106 0.0 0.0 0.00 0.22 0.00 97 1006.7
20260903084743 51 106 0.0 0.0 0.00 0.22 0.00 97 1006.6
20260903083742 51 106 0.0 0.0 0.00 0.22 0.00 97 1006.8
20260903082719 51 106 0.0 0.0 0.00 0.22 0.00 97 1006.6
20260903081701 51 106 0.0 0.0 0.00 0.22 0.00 97 1006.5
20260903080645 51 106 0.0 0.0 0.00 0.22 0.00 98 1006.6
20260903075631 51 106 0.0 0.0 0.00 0.22 0.22 99 1006.7
20260903074615 51 106 0.0 0.0 0.00 0.22 0.22 99 1006.6
20260903073558 51 106 0.0 0.0 0.00 0.22 0.22 99 1006.5
20260903072545 51 106 0.0 0.0 0.00 0.22 0.22 99 1006.5
20260903071533 51 106 0.0 0.0 0.00 0.22 0.22 99 1006.5
20260903070517 51 106 0.0 0.0 0.00 0.22 0.22 99 1006.5
20260903065508 51 106 0.0 0.0 0.00 0.22 0.22 99 1006.4
20260903064502 51 106 0.0 0.0 0.00 0.22 0.22 99 1006.4
20260903063500 52 106 0.0 0.0 0.00 0.22 0.22 99 1006.5
20260903062451 52 106 0.0 0.0 0.00 0.22 0.22 99 1006.3
20260903061439 52 106 0.0 0.0 0.00 0.22 0.22 99 1006.5
20260903060432 52 106 0.0 0.0 0.00 0.22 0.22 99 1006.5
20260903055427 52 106 0.0 0.0 0.00 0.22 0.22 99 1006.6
20260903054412 52 106 0.0 0.0 0.00 0.22 0.22 99 1006.4
20260903053348 52 106 0.0 0.0 0.00 0.22 0.22 99 1006.5
20260903052315 52 106 0.0 0.0 0.00 0.22 0.22 99 1006.6
20260903051313 52 106 0.0 0.0 0.00 0.22 0.22 99 1006.5
20260903050307 52 106 0.0 0.0 0.00 0.22 0.22 99 1006.5
20260903045252 52 106 0.0 0.0 0.00 0.22 0.22 99 1006.4
20260903044234 53 106 0.0 0.0 0.00 0.22 0.22 99 1006.2
20260903043230 53 106 0.0 0.0 0.00 0.22 0.22 98 1006.1
20260903042230 53 106 0.0 0.0 0.00 0.22 0.22 98 1006.2
20260903041200 54 106 0.0 0.0 0.00 0.22 0.22 98 1006.0
20260903040147 54 106 0.0 0.0 0.00 0.22 0.22 98 1006.2
20260903035128 54 106 0.0 0.0 0.00 0.22 0.22 98 1005.9
20260903034115 55 105 0.0 0.0 0.00 0.22 0.22 98 1005.8
20260903033110 55 106 0.0 0.0 0.00 0.22 0.22 98 1005.5
20260903032036 55 106 0.0 0.0 0.00 0.22 0.22 98 1005.5
20260903031026 55 105 0.0 0.0 0.00 0.22 0.22 98 1005.1
20260903030006 56 107 0.0 0.0 0.00 0.22 0.22 98 1005.1
20260903024955 56 107 0.0 0.0 0.00 0.22 0.22 97 1005.2
20260903023949 56 107 0.0 0.0 0.00 0.22 0.22 97 1005.0
20260903022920 56 108 0.0 0.0 0.00 0.22 0.22 96 1004.9
20260903021910 56 108 0.0 0.0 0.00 0.22 0.22 96 1004.8
20260903020843 57 107 0.0 0.0 0.00 0.22 0.22 95 1004.8
20260903015831 58 111 0.0 0.0 0.00 0.22 0.22 95 1004.7
20260903014802 58 107 0.0 0.0 0.00 0.22 0.22 94 1004.7
20260903013723 58 102 0.0 0.0 0.01 0.22 0.22 93 1004.5
20260903012659 58 110 0.0 0.0 0.05 0.22 0.22 93 1004.3
20260903011644 59 108 0.0 0.0 0.05 0.22 0.22 93 1004.1
20260903010621 58 113 0.0 0.0 0.05 0.22 0.22 96 1004.1
20260903005600 57 108 0.0 0.0 0.05 0.22 0.22 96 1003.9
20260903004557 57 101 1.0 1.0 0.05 0.22 0.22 97 1003.9
20260903003534 58 131 1.0 1.0 0.03 0.20 0.20 98 1004.0
20260903002516 59 104 0.0 0.0 0.00 0.17 0.17 98 1003.7
20260903001512 59 107 0.0 0.0 0.00 0.17 0.17 98 1003.0
20260903000501 59 105 0.0 0.0 0.00 0.17 0.17 98 1002.9
20260902235441 59 109 0.0 0.0 0.01 0.17 0.17 98 1002.9
20260902234432 59 109 0.0 0.0 0.02 0.17 0.17 98 1002.9